NIMBUS 2 DEB, 28205

Orbit data source: Space-Track

NIMBUS 2 DEB, 28205 is space debris in SSO originally from a launch on Sun, 15 May 1966 UTC launched from the Air Force Western Test Range (AFWTR). Debris objects in space refer to the collection of defunct objects orbiting the Earth. Examples of debris include non-operational satellites, rocket bodies, and fragments generated from explosions, collisions, or faulty payload assembly.

Loading next visibility...
Identifier
28205, 1966-040T
Orbit
SSO
Country
Flag of USUS
Related business
Manufacturer
Unknown
Mission
Spacecraft
Bus & Motor
Unknown
Mass
Unknown
Launch date (UTC)
1966-05-15 (60 years ago)
Launch vehicle
Unknown
Launch site
Air Force Western Test Range (AFWTR)
Object type
Payload
Rocket body
Debris
Shape & HBR
Unknown shape, 0.1 m
Radar Cross Section
Small (<0.1 m²)

Expand to show TLE details & history
Last TLE update: 18 hours ago

TLE from 18 hours ago
0 NIMBUS 2 DEB
1 28205U 66040T   26130.20963913  .00001571  00000-0  23312-2 0  9995
2 28205 100.3273   6.3136 0055806  19.7195 106.5643 13.54939849 87533
Epoch: 2026-05-10T05:01Z
TLE epoch observation values (Epoch: 2026-05-10T05:01:52.820Z)
Latitude
51.98369°
Longitude
-103.76347°
Altitude
1,074.475 km
Speed
7.314 km/s
True Right ascension
13h 18m 53s
True Declination
51° 49' 26"
Sunlit
Object was in daylight at epoch
Visualization orbit readout
Latitude
Unknown
Longitude
Unknown
Altitude
Unknown
Speed
Unknown
Apparent Right ascension
Unknown
Apparent Declination
Unknown
Sunlit
N/A
Visualization observer readout
Local Sidereal Time
07:01:09
Azimuth
Unknown
Elevation
Unknown
Doppler factor
Unknown
Orbital elements
Apogee altitude
1,092.929 km
Perigee altitude
1,010.005 km
Semi-major axis
7,429.604 km
Eccentricity
0.00558
Inclination
100.3273°
RAAN
6.3136°
Arg. of periapsis
19.7195°
True anomaly
107.17602°
Mean anomaly
106.5643°
Eccentric anomaly
106.87028°
Mean motion
3.38918 °/min
Orbital period
106.22 mins
BSTAR
0.0023312
Loading maneuver chart data...
Computing Atmospheric mass density...
Loading historical data...
Loading historical data...
Loading historical data...
Loading historical data...
Loading historical data...
Loading historical data...
Loading historical data...

Documentation

Showing up to 5 results
|